Showing default

GALAXY 34, 54027

Orbit data source: Space-Track

GALAXY 34, 54027 is a payload satellite owned by Intelsat SA (US) (US) in GEO that was launched on Sat, 08 Oct 2022 UTC via an FALCON 9 launch vehicle from the Air Force Eastern Test Range (AFETR). Payload-class satellites include a variety of spacecraft equipped with specific instruments for various scientific and technological missions. These include communications satellites like Starlink; space stations such as the ISS; scientific satellites like the Hubble; Earth observation satellites from companies like Planet Labs, Umbra, and HawkEye 360; GPS; miniature CubeSats for education and research; and military/defense satellites.

Loading next visibility...
Identifier
54027, 2022-128B
Orbit
GEO
Country
Flag of USUS
Related business
Manufacturer
NGIS SSG
Mission
Operational Commercial Communications
Bus & Motor
GEOSTAR-2.4E, BT-4?
Mass
3,650 kg wet, ~2,500 kg dry
Launch date (UTC)
2022-10-08 (3 years ago)
Launch vehicle
FALCON 9
Launch site
Air Force Eastern Test Range (AFETR)
Object type
Payload
Rocket body
Debris
Shape & HBR
Box + 2 Pan, 11.5 m
Radar Cross Section
29.373 m², Large (>1 m²)

Expand to show TLE details & history
Last TLE update: 13 hours ago

TLE from 13 hours ago
0 GALAXY 34
1 54027U 22128B   26062.70355469  .00000045  00000-0  00000-0 0  9997
2 54027   0.0115 137.4497 0001406 206.2864 302.0056  1.00272840 12857
Epoch: 2026-03-03T16:53Z
TLE epoch observation values (Epoch: 2026-03-03T16:53:07.125Z)
Latitude
0.02216°
Longitude
-128.996°
Altitude
35,782.621 km
Speed
3.075 km/s
True Right ascension
19h 03m 02s
True Declination
0° 01' 20"
Sunlit
Object was in daylight at epoch
Visualization orbit readout
Latitude
Unknown
Longitude
Unknown
Altitude
Unknown
Speed
Unknown
Apparent Right ascension
Unknown
Apparent Declination
Unknown
Sunlit
N/A
Visualization observer readout
Local Sidereal Time
10:09:04
Azimuth
Unknown
Elevation
Unknown
Doppler factor
Unknown
Orbital elements
Apogee altitude
35,793.298 km
Perigee altitude
35,781.441 km
Semi-major axis
42,165.507 km
Eccentricity
0.00014
Inclination
0.0115°
RAAN
137.4497°
Arg. of periapsis
206.2864°
True anomaly
301.99194°
Mean anomaly
302.0056°
Eccentric anomaly
301.99877°
Mean motion
0.25067 °/min
Orbital period
1,436.14 mins
BSTAR
0
Loading maneuver chart data...
Computing Atmospheric mass density...
Loading historical data...
Loading historical data...
Loading historical data...
Loading historical data...
Loading historical data...
Loading historical data...
Loading historical data...
Other satellites on launch #128 in the year 2022 (2022-10-08 UTC)

Documentation

Showing up to 5 results
|